map of GYN home
Great Circle Mapper logo
GYN - Airport
Location
City:  Goiania, Goiás, Brazil
Name:Santa Genoveva
ICAO / IATA:SBGO / GYN

Details
Type:Airport (Aerodrome, Airfield)
Use:Public/Civil
Latitude:16°37'55"S (-16.632032)
Longitude:49°13'14"W (-49.220685)
Datum:WGS 1984
Elevation:2450 ft (747 m)
Variation:20.68°W (WMM2015 magnetic declination)
-0.11° annual change
Runways:1
Longest:8204 × 148 ft (2501 × 45 m), paved

Time
Time Zone:UTC-3 (DST-2)
Local Time:

Weather
METAR:SBGO 312100Z 12006KT 9999 FEW035 FEW040TCU 26/16 Q1015
TAF:SBGO 311700Z 3118/0118 23005KT 9999 SCT030 FEW035TCU TX32/3118Z TN19/0108Z PROB40 3118/0101 4000 TSRA SCT035 FEW040CB
BECMG 0100/0102 2003KT 9999 SCT025 PROB30 0104/0109 BKN009
BECMG 0114/0116 20004KT 9999 SCT030 FEW035TCU
RMK PDC

Related Locations
Nearby:
Farthest:VRC: 11959 mi / 19246 km
Virac, Catanduanes Island, PH

Find:

   beyond  
but within

Other Information
Maps:
NOTAMs:
Links:
Sources:

  
flag of Brazil
flag of Goiás
  

Sectional Chart

Flight Planning
at skyvector.com

Satellite Image

Google Maps Satellite View

 

Copyright © 2004-2015 Karl L. Swartz. All rights reserved.
The Great Circle Mapper name and logo are trademarks of the Great Circle Mapper.
All other trademarks mentioned herein belong to their respective owners.
Please see credits for attibutions and further copyright information.

  Follow gcmap on Facebook Follow gcmap on Twitter Follow gcmap on Google+

hCard Microformat

Geo Microformat